Date String (YYYY-MM-DD hh:mm:ss) UTC,Instrument flags,absolute air pressure of the measurement (hPa),sample flow rate (lpm),inlet stack bypass flow (lpm),air temperature of the measurement (°C),ambient temperature measured by the external sensor (°C),aerosol sample conditioner tube jacket temperature (°C),OPC LED temperature (°C),internal box temperature (°C),relative humidity of the measurement (%),span deviation,mass concentration of particles derived from Lorenz-Mie calculation of OPC scattering (μg/m³),mass concentration of particles derived from Lorenz-Mie calculation of OPC scattering (μg/m³),mass concentration of particles derived from Lorenz-Mie calculation of OPC scattering (μg/m³)
DateTimeUTC,F1_M11,P_M11,Q1_M11,Q2_M11,T1_M11,T2_M11,T3_M11,T4_M11,T5_M11,U1_M11,ZSPAN_M11,X2_M11,X0_M11,X1_M11
2023-11-12 04:00:00,SystemResetWarning,0832.1,5.01,000.00,025.3,024.0,000.0,033.8,026.6,7.5,0000.0,0001.93,0003.90,0001.39
2023-11-12 04:01:00,SystemResetWarning,0831.7,5.01,000.00,025.3,024.0,000.0,033.8,026.5,7.4,0000.0,0001.91,0004.07,0001.38
2023-11-12 04:02:00,SystemResetWarning,0831.7,5.00,000.00,025.3,023.9,000.0,033.7,026.6,7.3,0000.0,0001.92,0005.04,0001.37
2023-11-12 04:03:00,SystemResetWarning,0831.7,4.99,000.00,025.2,023.9,000.0,033.7,026.5,7.4,0000.0,0001.95,0005.33,0001.38
2023-11-12 04:04:00,SystemResetWarning,0831.7,4.99,000.00,025.2,023.9,000.0,033.7,026.5,7.3,0000.0,0001.97,0005.95,0001.38
2023-11-12 04:05:00,SystemResetWarning,0831.7,5.00,000.00,025.2,023.9,000.0,033.7,026.5,7.4,0000.0,0002.03,0006.07,0001.38
2023-11-12 04:06:00,SystemResetWarning,0831.8,4.99,000.00,025.2,023.8,000.0,033.7,026.5,7.5,0000.0,0001.97,0005.90,0001.37
2023-11-12 04:07:00,SystemResetWarning,0831.7,5.01,000.00,025.2,023.8,000.0,033.7,026.5,7.4,0000.0,0001.92,0005.68,0001.37
2023-11-12 04:08:00,SystemResetWarning,0831.7,5.01,000.00,025.2,023.8,000.0,033.7,026.4,7.4,0000.0,0001.92,0005.74,0001.37
2023-11-12 04:09:00,SystemResetWarning,0831.7,5.00,000.00,025.2,023.8,000.0,033.7,026.4,7.5,0000.0,0001.99,0005.53,0001.37
2023-11-12 04:10:00,SystemResetWarning,0831.7,4.99,000.00,025.1,023.8,000.0,033.6,026.4,7.4,0000.0,0002.05,0005.56,0001.38
2023-11-12 04:11:00,SystemResetWarning,0831.7,4.98,000.00,025.1,023.8,000.0,033.6,026.3,7.4,0000.0,0002.07,0006.40,0001.38
2023-11-12 04:12:00,SystemResetWarning,0831.7,5.00,000.00,025.1,023.7,000.0,033.6,026.3,7.4,0000.0,0002.12,0006.52,0001.39
2023-11-12 04:13:00,SystemResetWarning,0831.8,5.00,000.00,025.1,023.7,000.0,033.6,026.4,7.5,0000.0,0002.14,0005.78,0001.40
2023-11-12 04:14:00,SystemResetWarning,0831.8,5.01,000.00,025.1,023.7,000.0,033.6,026.4,7.4,0000.0,0002.21,0005.73,0001.40
2023-11-12 04:15:00,SystemResetWarning,0831.9,5.00,000.00,025.1,023.7,000.0,033.6,026.4,7.5,0000.0,0002.23,0005.21,0001.40
2023-11-12 04:16:00,SystemResetWarning,0832.2,5.00,000.00,025.1,023.7,000.0,033.5,026.4,7.5,0000.0,0002.21,0005.24,0001.41
2023-11-12 04:17:00,SystemResetWarning,0832.0,5.00,000.00,025.1,023.7,000.0,033.5,026.4,7.4,0000.0,0002.31,0006.38,0001.42
2023-11-12 04:18:00,SystemResetWarning,0831.8,5.00,000.00,025.1,023.7,000.0,033.5,026.4,7.4,0000.0,0002.41,0007.16,0001.44
2023-11-12 04:19:00,SystemResetWarning,0831.8,5.00,000.00,025.0,023.7,000.0,033.5,026.4,7.4,0000.0,0002.40,0007.06,0001.44
2023-11-12 04:20:00,SystemResetWarning,0831.9,5.00,000.00,025.0,023.7,000.0,033.5,026.4,7.4,0000.0,0002.36,0006.92,0001.44
2023-11-12 04:21:00,SystemResetWarning,0831.9,5.00,000.00,025.0,023.6,000.0,033.5,026.3,7.4,0000.0,0002.28,0006.75,0001.44
2023-11-12 04:22:00,SystemResetWarning,0831.9,5.00,000.00,025.0,023.6,000.0,033.5,026.3,7.5,0000.0,0002.27,0005.88,0001.45
2023-11-12 04:23:00,SystemResetWarning,0831.9,5.00,000.00,025.0,023.6,000.0,033.5,026.4,7.5,0000.0,0002.25,0006.09,0001.45
2023-11-12 04:24:00,SystemResetWarning,0831.9,5.00,000.00,025.0,023.6,000.0,033.5,026.4,7.5,0000.0,0002.28,0006.02,0001.47
2023-11-12 04:25:00,SystemResetWarning,0832.0,5.00,000.00,025.0,023.6,000.0,033.4,026.4,7.4,0000.0,0002.24,0007.08,0001.48
2023-11-12 04:26:00,SystemResetWarning,0832.0,5.00,000.00,024.9,023.7,000.0,033.4,026.3,7.5,0000.0,0002.22,0007.51,0001.49
2023-11-12 04:27:00,SystemResetWarning,0832.0,5.00,000.00,024.9,023.7,000.0,033.4,026.4,7.5,0000.0,0002.21,0007.74,0001.48
2023-11-12 04:28:00,SystemResetWarning,0832.0,4.99,000.00,024.9,023.7,000.0,033.4,026.4,7.5,0000.0,0002.17,0007.41,0001.48
2023-11-12 04:29:00,SystemResetWarning,0832.0,5.00,000.00,024.9,023.7,000.0,033.4,026.3,7.5,0000.0,0002.09,0006.41,0001.48
2023-11-12 04:30:00,SystemResetWarning,0831.9,5.00,000.00,024.9,023.6,000.0,033.4,026.3,7.5,0000.0,0002.08,0007.49,0001.47
2023-11-12 04:31:00,SystemResetWarning,0831.9,5.00,000.00,024.9,023.6,000.0,033.4,026.3,7.4,0000.0,0002.10,0007.78,0001.48
2023-11-12 04:32:00,SystemResetWarning,0831.8,5.01,000.00,024.9,023.6,000.0,033.4,026.3,7.5,0000.0,0002.12,0007.74,0001.48
2023-11-12 04:33:00,SystemResetWarning,0832.0,5.00,000.00,024.9,023.6,000.0,033.3,026.3,7.5,0000.0,0002.12,0007.72,0001.47
2023-11-12 04:34:00,SystemResetWarning,0832.1,5.00,000.00,024.8,023.6,000.0,033.3,026.3,7.5,0000.0,0002.18,0008.76,0001.48
2023-11-12 04:35:00,SystemResetWarning,0831.8,5.00,000.00,024.8,023.6,000.0,033.3,026.3,7.5,0000.0,0002.16,0009.52,0001.47
2023-11-12 04:36:00,SystemResetWarning,0831.7,5.00,000.00,024.8,023.6,000.0,033.3,026.2,7.4,0000.0,0002.14,0008.99,0001.47
2023-11-12 04:37:00,SystemResetWarning,0831.7,5.00,000.00,024.8,023.5,000.0,033.3,026.3,7.4,0000.0,0002.18,0008.63,0001.47
2023-11-12 04:38:00,SystemResetWarning,0831.7,4.99,000.00,024.8,023.5,000.0,033.3,026.2,7.5,0000.0,0002.21,0008.38,0001.48
2023-11-12 04:39:00,SystemResetWarning,0831.7,5.00,000.00,024.8,023.5,000.0,033.3,026.2,7.5,0000.0,0002.30,0008.99,0001.50
2023-11-12 04:40:00,SystemResetWarning,0831.7,5.00,000.00,024.8,023.5,000.0,033.3,026.1,7.5,0000.0,0002.34,0009.02,0001.51
2023-11-12 04:41:00,SystemResetWarning,0831.7,5.00,000.00,024.7,023.5,000.0,033.2,026.1,7.5,0000.0,0002.39,0008.48,0001.52
2023-11-12 04:42:00,SystemResetWarning,0831.7,5.01,000.00,024.7,023.5,000.0,033.2,026.1,7.6,0000.0,0002.38,0008.11,0001.51
2023-11-12 04:43:00,SystemResetWarning,0831.7,5.00,000.00,024.7,023.5,000.0,033.2,026.1,7.6,0000.0,0002.43,0008.20,0001.51
2023-11-12 04:44:00,SystemResetWarning,0831.7,5.00,000.00,024.7,023.4,000.0,033.2,026.1,7.6,0000.0,0002.42,0008.63,0001.51
2023-11-12 04:45:00,SystemResetWarning,0832.0,5.00,000.00,024.7,023.4,000.0,033.2,026.1,7.6,0000.0,0002.33,0007.78,0001.52
2023-11-12 04:46:00,SystemResetWarning,0832.0,4.99,000.00,024.7,023.4,000.0,033.2,026.0,7.6,0000.0,0002.33,0006.19,0001.51
2023-11-12 04:47:00,SystemResetWarning,0832.0,5.00,000.00,024.6,023.4,000.0,033.1,026.0,7.5,0000.0,0002.40,0006.49,0001.52
2023-11-12 04:48:00,SystemResetWarning,0831.9,5.00,000.00,024.6,023.4,000.0,033.1,026.0,7.6,0000.0,0002.42,0006.61,0001.54
2023-11-12 04:49:00,SystemResetWarning,0831.9,5.00,000.00,024.6,023.4,000.0,033.1,026.0,7.6,0000.0,0002.37,0006.55,0001.53
2023-11-12 04:50:00,SystemResetWarning,0832.1,5.00,000.00,024.6,023.4,000.0,033.1,026.0,7.6,0000.0,0002.32,0005.47,0001.52
2023-11-12 04:51:00,SystemResetWarning,0831.8,5.00,000.00,024.6,023.4,000.0,033.1,025.9,7.5,0000.0,0002.30,0005.57,0001.50
2023-11-12 04:52:00,SystemResetWarning,0831.7,5.00,000.00,024.6,023.4,000.0,033.1,026.0,7.6,0000.0,0002.26,0005.53,0001.49
2023-11-12 04:53:00,SystemResetWarning,0831.7,5.00,000.00,024.6,023.4,000.0,033.1,026.0,7.6,0000.0,0002.25,0005.55,0001.49
2023-11-12 04:54:00,SystemResetWarning,0831.7,5.01,000.00,024.6,023.3,000.0,033.0,025.9,7.6,0000.0,0002.23,0005.42,0001.50
2023-11-12 04:55:00,SystemResetWarning,0831.6,5.00,000.00,024.5,023.3,000.0,033.0,025.9,7.6,0000.0,0002.21,0004.62,0001.51
2023-11-12 04:56:00,SystemResetWarning,0831.5,5.00,000.00,024.5,023.3,000.0,033.0,025.9,7.6,0000.0,0002.24,0004.25,0001.51
2023-11-12 04:57:00,SystemResetWarning,0831.7,5.00,000.00,024.5,023.3,000.0,033.0,025.8,7.6,0000.0,0002.19,0004.06,0001.50
2023-11-12 04:58:00,SystemResetWarning,0831.6,5.00,000.00,024.5,023.2,000.0,033.0,025.8,7.6,0000.0,0002.14,0003.88,0001.49
2023-11-12 04:59:00,SystemResetWarning,0831.6,5.01,000.00,024.4,023.2,000.0,033.0,025.9,7.7,0000.0,0002.13,0003.80,0001.49
